Hourly Data Report for October 29, 2013

All times are specified in Local Standard Time (LST). Add 1 hour to adjust for Daylight Saving Time where and when it is observed.

KITCHENER/WATERLOO
ONTARIO

43°27'39.000" N
80°22'43.000" W
321.60 m
6144239
71368
YKF

Download Data

Hourly Data (October 2013)
Hourly Data Report for October 29, 2013
Temp Definition
°C
Dew Point Temp Definition
°C
Rel Hum Definition
%
Wind Dir Definition
10's deg

Wind Spd Definition
km/h
Visibility Definition
km
Stn Press Definition
kPa
Hmdx Definition


Wind Chill Definition


Weather Definition


TIME
00:00 Legend Double Dagger -0.6 -4.9 73 3 5 16.1 99.05   -2 LegendNANA
01:00 Legend Double Dagger -0.1 -4.5 72 3 5 16.1 99.10   -2 LegendNANA
02:00 Legend Double Dagger 0.0 -4.8 70 4 8 16.1 99.09   -3 LegendNANA
03:00 Legend Double Dagger -0.5 -5.0 72 3 5 16.1 99.09   -2 LegendNANA
04:00 Legend Double Dagger -2.0 -3.8 88 34 5 16.1 99.11   -4 LegendNANA
05:00 Legend Double Dagger -2.2 -4.5 84 1 8 16.1 99.15   -5 LegendNANA
06:00 Legend Double Dagger -3.4 -4.8 90 36 5 16.1 99.15   -5 LegendNANA
07:00 Legend Double Dagger -4.5 -5.4 93 31 4 16.1 99.17   -6 LegendNANA
08:00 Legend Double Dagger -2.2 -4.3 86 35 5 16.1 99.22   -4 LegendNANA
09:00 Legend Double Dagger 0.8 -3.4 74 8 5 16.1 99.23     LegendNANA
10:00 Legend Double Dagger 3.5 -2.4 66 12 8 16.1 99.22     LegendNANA
11:00 Legend Double Dagger 5.2 -1.2 63 9 11 16.1 99.20     LegendNANA
12:00 Legend Double Dagger 5.4 -2.7 56 LegendMM 8 16.1 99.11     LegendNANA
13:00 Legend Double Dagger 6.3 -3.0 52 LegendMM 4 16.1 99.02     LegendNANA
14:00 Legend Double Dagger 6.7 -2.3 53 11 5 16.1 98.93     LegendNANA
15:00 Legend Double Dagger 6.3 -2.0 55 LegendMM 4 16.1 98.91     LegendNANA
16:00 Legend Double Dagger 5.7 -1.0 62 12 13 16.1 98.88     LegendNANA
17:00 Legend Double Dagger 4.9 -0.3 69 13 13 16.1 98.86     LegendNANA
18:00 Legend Double Dagger 4.2 0.4 76 15 11 16.1 98.88     LegendNANA
19:00 Legend Double Dagger 3.8 0.5 79 15 13 16.1 98.87     LegendNANA
20:00 Legend Double Dagger 3.4 0.8 83 15 11 16.1 98.80     LegendNANA
21:00 Legend Double Dagger 3.3 0.7 83 18 5 16.1 98.78     LegendNANA
22:00 Legend Double Dagger 3.0 1.0 87 13 4 16.1 98.72     LegendNANA
23:00 Legend Double Dagger 3.1 1.6 90 14 5 16.1 98.66     LegendNANA

Notes on Data Quality.

Legend

  • E = Estimated
  • M = Missing
  • NA = Not Available
  • ‡ = Partner data that is not subject to review by the National Climate Archives
Date modified: